Flag for U.S.A. Weather past 2 weeks in Bellingham, Washington, U.S.A.

Now
59 °F

Sunny.


Feels Like: 57 °F
Forecast: 44 / 60 °F
Wind: 9 mph from West

Location: Bellingham International Airport

Current Time: May 6, 2015 at 4:33:34 PM

Latest Report: May 6, 2015 at 3:53 PM


Visibility: 10 mi

Pressure: 30.12 "Hg

Humidity: 51%

Dew point: 41 °F

Location of BellinghamLocation

Historic Weather in Bellingham — Graph

°F

Bellingham temperature yesterday

Maximum temperature yesterday: 56 °F (at 4:53 PM)
Minimum temperature yesterday: 45 °F (at 6:53 AM)
Average temperature yesterday: 50 °F

Past Weeks' High & Low Weather Summary

 TemperatureHumidityPressure
High67 °F (Apr 27, 4:53 PM)100% (Apr 25, 12:53 AM)30.32 "Hg (Apr 25, 12:53 AM)
Low37 °F (Apr 25, 5:53 AM)34% (May 3, 5:53 PM)29.71 "Hg (Apr 24, 5:04 AM)
Average51 °F74%30.06 "Hg
* Reported Apr 21 2:53 PM — May 6 2:53 PM, Bellingham, Weather by CustomWeather, © 2015

Note: Actual official high and low records may vary slightly from our data, if they occured in-between our weather recording intervals... More about our weather records

Advertising

Bellingham weather history for previous 24 hours

 ConditionsComfort  
Time TempWeatherWind HumidityBarometerVisibility
2:53 PM
Wed, May 6
58 °FSunny.8 mph58%30.14 "Hg10 mi
1:53 PM58 °FPassing clouds.8 mph65%30.14 "Hg10 mi
12:53 PM55 °FBroken clouds.8 mph69%30.15 "Hg10 mi
11:53 AM53 °FMore clouds than sun.5 mph72%30.16 "Hg10 mi
10:53 AM53 °FMore clouds than sun.3 mph72%30.16 "Hg10 mi
9:53 AM52 °FPartly sunny.5 mph75%30.16 "Hg10 mi
8:53 AM51 °FBroken clouds.3 mph77%30.16 "Hg10 mi
7:53 AM49 °FMostly cloudy.No wind77%30.16 "Hg10 mi
6:53 AM47 °FPartly sunny.No wind90%30.14 "Hg10 mi
5:53 AM41 °FOvercast.No wind100%30.13 "Hg10 mi
4:53 AM45 °FOvercast.No wind93%30.12 "Hg10 mi
3:53 AM42 °FPassing clouds.No wind96%30.12 "Hg10 mi
2:53 AM43 °FPassing clouds.No wind97%30.12 "Hg10 mi
1:53 AM46 °FClear.3 mph86%30.12 "Hg10 mi
12:53 AM48 °FClear.7 mph83%30.13 "Hg10 mi
11:53 PM
Tue, May 5
48 °FClear.3 mph80%30.12 "Hg10 mi
10:53 PM49 °FClear.8 mph80%30.12 "Hg10 mi
9:53 PM50 °FClear.9 mph77%30.11 "Hg10 mi
8:53 PM51 °FSunny.5 mph77%30.09 "Hg10 mi
7:53 PM52 °FSunny.6 mph69%30.09 "Hg10 mi
6:53 PM54 °FSunny.7 mph64%30.07 "Hg10 mi
5:53 PM55 °FSunny.6 mph64%30.07 "Hg10 mi
4:53 PM56 °FSunny.8 mph58%30.06 "Hg10 mi
Weather by CustomWeather, © 2015

See weather overviewHow to use our weather pages